Weather History for KCEZ - February, 2014

Change the Weather History Date:

Tuesday, February 18, 2014

  Actual Average Record
Temperature  
Mean Temperature 42 °F 33 °F  
Max Temperature 61 °F 46 °F 61 °F (2014)
Min Temperature 22 °F 19 °F 12 °F (2008)
Degree Days  
Heating Degree Days 23 32  
Month to date heating degree days 553 614  
Since 1 July heating degree days 4309 4419  
Cooling Degree Days 0 0  
Month to date cooling degree days 0 0  
Year to date cooling degree days 0 0  
Moisture  
Dew Point 20 °F    
Average Humidity 50    
Maximum Humidity 81    
Minimum Humidity 19    
Precipitation  
Precipitation 0.00 in 0.04 in 0.25 in (2003)
Month to date precipitation 0.30 0.56  
Year to date precipitation 0.55 1.57  
Sea Level Pressure  
Sea Level Pressure 30.03 in    
Wind  
Wind Speed 5 mph (East)    
Max Wind Speed 12 mph    
Max Gust Speed 15 mph    
Visibility 10 miles    
Events      
T = Trace of Precipitation, MM = Missing Value Source: NWS Daily Summary

Daily Weather History Graph

Daily Weather History Graph

Search for Another Location

Airport or City:

Trip Planner

Search our weather history database for the weather conditions in past years. The results will help you decide how hot, cold, wet, or windy it might be!

Date:

Astronomy

Feb. 18, 2014 Rise Set
Actual Time 6:59 AM MST 5:57 PM MST
Civil Twilight 6:33 AM MST 6:24 PM MST
Nautical Twilight 6:02 AM MST 6:54 PM MST
Astronomical Twilight 5:32 AM MST 7:24 PM MST
Moon 9:47 PM MST (2/18) 8:39 AM MST (2/18)
Length of Visible Light 11h 50m
Length of Day
10h 57m
Waning Gibbous, 87% of the Moon is Illuminated
Feb 18
Waning Gibbous
Feb 22
Last Quarter
Mar 1
New
Mar 8
First Quarter
Mar 16
Full

Hourly Weather History & Observations

Time (MST) Temp. Windchill Dew Point Humidity Pressure Visibility Wind Dir Wind Speed Gust Speed Precip Events Conditions
12:53 AM 27.0 °F - 19.0 °F 72% 30.00 in 10.0 mi Calm Calm - N/A   Clear
1:53 AM 25.0 °F 18.1 °F 19.0 °F 78% 30.00 in 10.0 mi ENE 5.8 mph - N/A   Clear
2:53 AM 25.0 °F 19.3 °F 19.0 °F 78% 29.99 in 10.0 mi ESE 4.6 mph - N/A   Clear
3:53 AM 25.0 °F 17.1 °F 19.0 °F 78% 30.00 in 10.0 mi East 6.9 mph - N/A   Clear
4:53 AM 26.1 °F 21.9 °F 18.0 °F 71% 30.02 in 10.0 mi East 3.5 mph - N/A   Clear
5:53 AM 25.0 °F 20.7 °F 18.0 °F 75% 30.07 in 10.0 mi ENE 3.5 mph - N/A   Clear
6:53 AM 25.0 °F 15.5 °F 18.0 °F 75% 30.12 in 10.0 mi NE 9.2 mph - N/A   Clear
7:53 AM 27.0 °F 23.0 °F 19.9 °F 75% 30.13 in 10.0 mi South 3.5 mph - N/A   Clear
8:53 AM 42.1 °F - 21.0 °F 43% 30.12 in 10.0 mi North - - N/A   Clear
9:53 AM 46.9 °F - 21.0 °F 36% 30.10 in 10.0 mi North - - N/A   Clear
10:53 AM 53.1 °F - 17.1 °F 24% 30.08 in 10.0 mi Variable 3.5 mph - N/A   Clear
11:53 AM 55.0 °F - 17.1 °F 23% 30.05 in 10.0 mi SW 3.5 mph - N/A   Clear
12:53 PM 57.9 °F - 16.0 °F 19% 30.02 in 10.0 mi Variable 5.8 mph - N/A   Clear
1:53 PM 59.0 °F - 17.1 °F 20% 30.01 in 10.0 mi North - - N/A   Clear
2:53 PM 60.1 °F - 19.0 °F 20% 29.98 in 10.0 mi West 9.2 mph - N/A   Clear
3:53 PM 57.9 °F - 18.0 °F 21% 29.98 in 10.0 mi West 8.1 mph - N/A   Clear
4:53 PM 55.0 °F - 15.1 °F 21% 29.99 in 10.0 mi West 9.2 mph - N/A   Clear
5:53 PM 51.1 °F - 17.1 °F 26% 30.01 in 10.0 mi NW 4.6 mph - N/A   Clear
6:53 PM 43.0 °F 39.5 °F 21.9 °F 43% 30.06 in 10.0 mi ESE 5.8 mph - N/A   Clear
7:53 PM 41.0 °F 37.1 °F 21.9 °F 47% 30.06 in 10.0 mi NE 5.8 mph - N/A   Clear
8:53 PM 42.1 °F 37.1 °F 24.1 °F 49% 29.98 in 10.0 mi ENE 8.1 mph - N/A   Clear
9:53 PM 39.0 °F - 24.1 °F 55% 29.97 in 10.0 mi Calm Calm - N/A   Clear
10:53 PM 37.0 °F 33.3 °F 26.1 °F 65% 29.96 in 10.0 mi SE 4.6 mph - N/A   Clear
11:53 PM 37.0 °F 34.5 °F 25.0 °F 62% 29.94 in 10.0 mi East 3.5 mph - N/A   Clear